DELTA 1 DEB, 10659

Orbit data source: Space-Track

DELTA 1 DEB, 10659 is space debris in SSO originally from a launch on Thu, 29 Jul 1976 UTC launched from the Air Force Western Test Range (AFWTR). Debris objects in space refer to the collection of defunct objects orbiting the Earth. Examples of debris include non-operational satellites, rocket bodies, and fragments generated from explosions, collisions, or faulty payload assembly.

Loading next visibility...
Identifier
10659, 1976-077V
Orbit
SSO
Country
Flag of USUS
Related business
Manufacturer
Unknown
Mission
Spacecraft
Bus & Motor
Unknown
Mass
Unknown
Launch date (UTC)
1976-07-29 (49 years ago)
Launch vehicle
Unknown
Launch site
Air Force Western Test Range (AFWTR)
Object type
Payload
Rocket body
Debris
Shape & HBR
Unknown shape, 0.3 m
Radar Cross Section
Small (<0.1 m²)

Expand to show TLE details & history
Last TLE update: 16 hours ago

TLE from 16 hours ago
0 DELTA 1 DEB
1 10659U 76077V   25349.33079123 -.00000050  00000-0 -90687-4 0  9990
2 10659 102.1813 290.9882 0175851  40.0513 112.1142 12.09378685180401
Epoch: 2025-12-15T07:56Z
TLE epoch observation values (Epoch: 2025-12-15T07:56:20.362Z)
Latitude
25.38573°
Longitude
-86.47632°
Altitude
1,697.047 km
Speed
7.005 km/s
True Right ascension
07h 47m 21s
True Declination
25° 16' 06"
Sunlit
Object was in full shadow at epoch
Visualization orbit readout
Latitude
Unknown
Longitude
Unknown
Altitude
Unknown
Speed
Unknown
Apparent Right ascension
Unknown
Apparent Declination
Unknown
Sunlit
N/A
Visualization observer readout
Local Sidereal Time
22:29:32
Azimuth
Unknown
Elevation
Unknown
Doppler factor
Unknown
Orbital elements
Apogee altitude
1,777.709 km
Perigee altitude
1,495.823 km
Semi-major axis
8,014.903 km
Eccentricity
0.01759
Inclination
102.1813°
RAAN
290.9882°
Arg. of periapsis
40.0513°
True anomaly
113.96542°
Mean anomaly
112.1142°
Eccentric anomaly
113.04137°
Mean motion
3.02479 °/min
Orbital period
119.02 mins
BSTAR
-0.000090687
Loading maneuver chart data...
Computing Atmospheric mass density...
Loading historical data...
Loading historical data...
Loading historical data...
Loading historical data...
Loading historical data...
Loading historical data...
Loading historical data...

Documentation

Showing up to 5 results
|